Find Starlink 2166

NORAD ID: 48558 Int'l Des: 2021-041 Owner: SPXS Country: US Constellation: starlink operational
LEOCIRCULAR

Live Position

Loading 3D Globe...

About Starlink 2166

Description loading...

Upcoming Passes

Passes for default location (London). Set your location on the main map for personalized predictions.

Altitude History

Loading altitude history...

Two-Line Element Set

1 48558U 21041F 26140.03380840 .00000520 00000-0 28533-4 0 9999
2 48558 53.1598 155.0451 0001224 90.7066 269.4076 15.31704789275341
Epoch: May 20, 2026 • Age: 7 hours

Current Status

Altitude 471.0 km
Velocity 7.63 km/s
Sub-Earth Point 5.47°N, 25.81°W
Launch Date May 15, 2021
Age 5 years
Type internet

Technical Details

Classification Payload
Mass 260.00 kg
Dry Mass 248.00 kg
Total Mass 260.00 kg
Length 0.20 m
Diameter 2.80 m
Span 9.00 m
Shape Box + pan
Manufacturer SPXS
Bus Type Starlink
Phase Status In Orbit
Owner/State SPXS/US

Most Searched